Radiation Dose at Monitoring Post of Fukushima Daini Nuclear Power Station
Date,Time,MP-1(microSv/h),MP-2(microSv/h),MP-3(microSv/h),MP-4(microSv/h),MP-5(microSv/h),MP-6(microSv/h),MP-7(microSv/h),Wind Direction,Wind Velocity(m/s),Rain
2014/11/07,00:00,0.617,0.412,0.651,0.587,0.585,0.268,0.235,north-northwest,8.4,Yes
2014/11/07,00:10,0.617,0.411,0.653,0.586,0.583,0.269,0.234,north-northwest,8.8,Yes
2014/11/07,00:20,0.617,0.411,0.650,0.584,0.584,0.269,0.235,north-northwest,8.5,Yes
2014/11/07,00:30,0.616,0.410,0.651,0.585,0.581,0.268,0.234,north-northwest,9.0,No
2014/11/07,00:40,0.616,0.411,0.649,0.584,0.583,0.266,0.234,north,8.5,No
2014/11/07,00:50,0.617,0.410,0.649,0.585,0.583,0.267,0.232,north,8.9,No
2014/11/07,01:00,0.617,0.410,0.651,0.583,0.582,0.266,0.232,north-northwest,7.7,No
2014/11/07,01:10,0.616,0.409,0.650,0.585,0.583,0.267,0.233,north-northwest,8.3,No
2014/11/07,01:20,0.617,0.410,0.649,0.583,0.584,0.266,0.233,north-northwest,7.3,No
2014/11/07,01:30,0.615,0.409,0.650,0.584,0.582,0.267,0.232,north-northwest,7.7,No
2014/11/07,01:40,0.616,0.409,0.652,0.583,0.582,0.265,0.231,north,7.7,No
2014/11/07,01:50,0.617,0.410,0.648,0.584,0.584,0.266,0.233,north-northwest,6.2,No
2014/11/07,02:00,0.617,0.410,0.648,0.584,0.583,0.267,0.232,north-northwest,6.4,No
2014/11/07,02:10,0.616,0.407,0.650,0.584,0.583,0.265,0.232,north,6.7,No
2014/11/07,02:20,0.620,0.408,0.649,0.586,0.584,0.266,0.232,north-northwest,7.6,No
2014/11/07,02:30,0.618,0.409,0.651,0.583,0.581,0.266,0.233,north-northwest,9.9,No
2014/11/07,02:40,0.618,0.410,0.648,0.586,0.583,0.266,0.232,north-northwest,11.1,No
2014/11/07,02:50,0.615,0.409,0.650,0.584,0.584,0.266,0.233,north-northwest,8.0,No
2014/11/07,03:00,0.617,0.407,0.651,0.584,0.584,0.266,0.233,north-northwest,7.5,No
2014/11/07,03:10,0.618,0.410,0.650,0.583,0.583,0.265,0.232,north-northwest,5.3,No
2014/11/07,03:20,0.617,0.410,0.652,0.585,0.582,0.267,0.232,north-northwest,6.9,No
2014/11/07,03:30,0.616,0.409,0.650,0.584,0.584,0.265,0.231,north-northwest,5.6,No
2014/11/07,03:40,0.619,0.409,0.651,0.583,0.583,0.266,0.233,north,6.7,No
2014/11/07,03:50,0.616,0.411,0.651,0.585,0.583,0.267,0.232,north,8.1,No
2014/11/07,04:00,0.617,0.409,0.651,0.582,0.583,0.265,0.231,north-northwest,9.6,No
2014/11/07,04:10,0.618,0.410,0.650,0.583,0.582,0.266,0.232,north-northwest,7.6,No
2014/11/07,04:20,0.615,0.408,0.651,0.587,0.582,0.267,0.232,north-northwest,7.9,No
2014/11/07,04:30,0.617,0.410,0.649,0.585,0.585,0.266,0.233,northwest,8.9,No
2014/11/07,04:40,0.618,0.409,0.651,0.585,0.584,0.267,0.232,northwest,9.8,No
2014/11/07,04:50,0.617,0.411,0.650,0.584,0.584,0.267,0.232,north-northwest,8.2,No
2014/11/07,05:00,0.617,0.410,0.653,0.586,0.585,0.266,0.232,north-northwest,5.2,No
2014/11/07,05:10,0.619,0.409,0.650,0.584,0.584,0.266,0.232,north,7.8,No
2014/11/07,05:20,0.621,0.410,0.652,0.585,0.584,0.267,0.233,north,10.0,No
2014/11/07,05:30,0.617,0.410,0.651,0.586,0.584,0.266,0.233,north,8.3,No
2014/11/07,05:40,0.617,0.410,0.650,0.584,0.583,0.268,0.232,north,8.3,No
2014/11/07,05:50,0.618,0.410,0.651,0.586,0.584,0.266,0.233,north,7.2,No
2014/11/07,06:00,0.618,0.411,0.653,0.586,0.586,0.267,0.233,north,6.0,No
2014/11/07,06:10,0.619,0.411,0.653,0.586,0.584,0.266,0.233,north,5.7,No
2014/11/07,06:20,0.619,0.411,0.651,0.586,0.583,0.267,0.232,north,7.9,No
2014/11/07,06:30,0.620,0.412,0.651,0.585,0.584,0.268,0.232,north,9.5,No
2014/11/07,06:40,0.618,0.409,0.651,0.584,0.584,0.265,0.233,north,9.8,No
2014/11/07,06:50,0.618,0.410,0.651,0.587,0.583,0.267,0.233,north,7.8,No
2014/11/07,07:00,0.620,0.411,0.651,0.585,0.585,0.268,0.233,north,7.7,No
2014/11/07,07:10,0.618,0.410,0.653,0.585,0.586,0.266,0.233,north,6.9,No
2014/11/07,07:20,0.619,0.410,0.653,0.586,0.585,0.267,0.233,north,6.4,No
2014/11/07,07:30,0.618,0.412,0.653,0.585,0.585,0.267,0.233,north,6.1,No
2014/11/07,07:40,0.619,0.411,0.653,0.586,0.586,0.267,0.233,north,6.1,No
2014/11/07,07:50,0.620,0.411,0.652,0.586,0.586,0.268,0.233,north,5.9,No
2014/11/07,08:00,0.620,0.410,0.649,0.586,0.586,0.268,0.233,north,4.6,No
2014/11/07,08:10,0.620,0.412,0.654,0.586,0.585,0.269,0.233,north,3.9,No
2014/11/07,08:20,0.618,0.410,0.651,0.586,0.585,0.267,0.234,north,2.9,No
2014/11/07,08:30,0.619,0.412,0.653,0.586,0.584,0.266,0.233,north,2.8,No
2014/11/07,08:40,0.618,0.411,0.652,0.587,0.586,0.268,0.234,north,3.3,No
2014/11/07,08:50,0.619,0.412,0.652,0.586,0.586,0.267,0.233,north,5.3,No
2014/11/07,09:00,0.620,0.410,0.653,0.588,0.586,0.267,0.235,north,3.8,No
2014/11/07,09:10,0.619,0.412,0.653,0.590,0.587,0.267,0.234,north,4.3,No
2014/11/07,09:20,0.620,0.414,0.654,0.588,0.588,0.268,0.235,north-northwest,3.8,No
2014/11/07,09:30,0.621,0.411,0.654,0.589,0.586,0.268,0.233,northwest,3.9,No
2014/11/07,09:40,0.620,0.411,0.654,0.588,0.586,0.268,0.234,north-northwest,3.3,No
2014/11/07,09:50,0.621,0.411,0.651,0.590,0.587,0.267,0.233,north-northwest,3.7,No
2014/11/07,10:00,0.621,0.411,0.653,0.591,0.586,0.269,0.235,north-northwest,3.1,No
2014/11/07,10:10,0.621,0.412,0.654,0.590,0.588,0.266,0.235,north,3.3,No
2014/11/07,10:20,0.621,0.412,0.655,0.591,0.587,0.269,0.234,north-northwest,2.5,No
2014/11/07,10:30,0.621,0.412,0.653,0.590,0.586,0.267,0.235,north,4.7,No
2014/11/07,10:40,0.621,0.414,0.654,0.588,0.590,0.268,0.235,north,5.6,No
2014/11/07,10:50,0.620,0.414,0.655,0.591,0.586,0.267,0.236,north,3.5,No
2014/11/07,11:00,0.621,0.412,0.653,0.591,0.586,0.269,0.234,north-northwest,4.0,No
2014/11/07,11:10,0.621,0.412,0.654,0.590,0.587,0.268,0.237,north-northwest,4.2,No
2014/11/07,11:20,0.621,0.413,0.655,0.590,0.585,0.269,0.235,north-northeast,3.2,No
2014/11/07,11:30,0.620,0.413,0.654,0.591,0.587,0.269,0.236,north-northwest,1.8,No
2014/11/07,11:40,0.622,0.413,0.654,0.590,0.587,0.269,0.234,north,1.1,No
2014/11/07,11:50,0.621,0.412,0.654,0.590,0.587,0.268,0.235,north-northwest,1.6,No
2014/11/07,12:00,0.621,0.413,0.654,0.590,0.587,0.268,0.235,north-northwest,2.2,No
2014/11/07,12:10,0.620,0.414,0.655,0.592,0.586,0.269,0.236,north,2.1,No
2014/11/07,12:20,0.622,0.413,0.655,0.590,0.586,0.268,0.234,north-northwest,2.0,No
2014/11/07,12:30,0.621,0.413,0.655,0.591,0.587,0.269,0.235,north,2.7,No
2014/11/07,12:40,0.621,0.413,0.654,0.591,0.590,0.269,0.235,north,1.4,No
2014/11/07,12:50,0.621,0.412,0.656,0.590,0.588,0.269,0.233,west,2.4,No
2014/11/07,13:00,0.622,0.414,0.656,0.592,0.588,0.270,0.235,west-northwest,4.5,No
2014/11/07,13:10,0.621,0.412,0.657,0.593,0.589,0.269,0.235,west-northwest,3.9,No
2014/11/07,13:20,0.621,0.414,0.657,0.595,0.590,0.269,0.234,west-northwest,5.4,No
2014/11/07,13:30,0.621,0.413,0.657,0.596,0.590,0.269,0.236,west-northwest,6.9,No
2014/11/07,13:40,0.621,0.415,0.658,0.598,0.591,0.271,0.236,west-northwest,6.1,No
2014/11/07,13:50,0.623,0.415,0.659,0.598,0.590,0.268,0.236,northwest,5.8,No
2014/11/07,14:00,0.624,0.415,0.659,0.599,0.590,0.271,0.237,northwest,6.4,No
2014/11/07,14:10,0.623,0.415,0.657,0.598,0.590,0.269,0.236,west-northwest,5.7,No
2014/11/07,14:20,0.621,0.415,0.655,0.599,0.591,0.269,0.236,west,5.3,No
2014/11/07,14:30,0.622,0.415,0.655,0.595,0.586,0.268,0.236,west-northwest,5.3,No
2014/11/07,14:40,0.622,0.415,0.655,0.595,0.587,0.268,0.235,northwest,3.4,No
2014/11/07,14:50,0.620,0.415,0.654,0.594,0.586,0.268,0.236,northwest,3.2,No
2014/11/07,15:00,0.620,0.414,0.656,0.597,0.587,0.269,0.236,north-northwest,3.3,No
2014/11/07,15:10,0.623,0.415,0.654,0.596,0.586,0.269,0.236,north,3.6,No
2014/11/07,15:20,0.620,0.414,0.652,0.592,0.584,0.269,0.235,north-northwest,2.7,No
2014/11/07,15:30,0.622,0.413,0.654,0.593,0.586,0.269,0.236,north-northwest,1.0,No
2014/11/07,15:40,0.622,0.411,0.653,0.591,0.586,0.270,0.236,northwest,2.1,No
2014/11/07,15:50,0.621,0.410,0.651,0.591,0.586,0.269,0.236,northwest,3.3,No
2014/11/07,16:00,0.622,0.410,0.652,0.589,0.584,0.271,0.237,west-northwest,3.2,No
2014/11/07,16:10,0.621,0.411,0.654,0.587,0.585,0.269,0.235,northwest,3.6,No
2014/11/07,16:20,0.620,0.410,0.654,0.586,0.585,0.269,0.237,west-northwest,5.5,No
2014/11/07,16:30,0.623,0.410,0.652,0.588,0.585,0.269,0.236,west-northwest,7.6,No
2014/11/07,16:40,0.621,0.411,0.652,0.590,0.587,0.269,0.236,west-northwest,9.5,No
2014/11/07,16:50,0.623,0.411,0.654,0.589,0.585,0.270,0.236,west-northwest,7.1,No
2014/11/07,17:00,0.623,0.409,0.654,0.589,0.585,0.270,0.236,west-northwest,5.2,No
2014/11/07,17:10,0.622,0.410,0.655,0.588,0.585,0.270,0.237,northwest,5.1,No
2014/11/07,17:20,0.622,0.410,0.654,0.588,0.586,0.270,0.236,northwest,3.6,No
2014/11/07,17:30,0.622,0.411,0.655,0.587,0.586,0.271,0.237,northwest,5.0,No
2014/11/07,17:40,0.621,0.410,0.654,0.588,0.587,0.271,0.236,north-northwest,4.2,No
2014/11/07,17:50,0.620,0.411,0.654,0.589,0.587,0.270,0.235,northwest,3.7,No
2014/11/07,18:00,0.622,0.409,0.654,0.588,0.587,0.269,0.237,north-northwest,3.6,No
2014/11/07,18:10,0.621,0.411,0.656,0.587,0.586,0.270,0.236,west-northwest,4.6,No
2014/11/07,18:20,0.621,0.410,0.654,0.589,0.586,0.270,0.238,northwest,5.0,No
2014/11/07,18:30,0.621,0.411,0.652,0.589,0.587,0.270,0.237,northwest,5.1,No
2014/11/07,18:40,0.622,0.410,0.655,0.589,0.584,0.272,0.237,northwest,4.2,No
2014/11/07,18:50,0.622,0.411,0.652,0.590,0.585,0.270,0.239,west-northwest,4.8,No
2014/11/07,19:00,0.621,0.413,0.653,0.590,0.588,0.269,0.238,west-northwest,8.1,No
2014/11/07,19:10,0.620,0.410,0.653,0.589,0.586,0.269,0.238,northwest,7.5,No
2014/11/07,19:20,0.623,0.411,0.655,0.591,0.586,0.270,0.238,west-northwest,8.5,No
2014/11/07,19:30,0.621,0.412,0.655,0.589,0.586,0.270,0.237,northwest,6.9,No
2014/11/07,19:40,0.621,0.410,0.653,0.590,0.585,0.269,0.238,west-northwest,8.6,No
2014/11/07,19:50,0.623,0.411,0.656,0.592,0.587,0.272,0.236,west-northwest,8.0,No
2014/11/07,20:00,0.622,0.411,0.656,0.588,0.587,0.271,0.238,west-northwest,7.6,No
2014/11/07,20:10,0.622,0.413,0.654,0.591,0.586,0.270,0.236,northwest,7.2,No
2014/11/07,20:20,0.623,0.412,0.654,0.588,0.587,0.270,0.238,west-northwest,7.3,No
2014/11/07,20:30,0.623,0.413,0.655,0.591,0.587,0.271,0.237,northwest,6.9,No
2014/11/07,20:40,0.622,0.412,0.655,0.590,0.586,0.269,0.237,north-northwest,4.7,No
2014/11/07,20:50,0.620,0.411,0.656,0.592,0.587,0.271,0.237,north,5.1,No
2014/11/07,21:00,0.622,0.412,0.654,0.589,0.586,0.271,0.238,north-northeast,6.7,No
2014/11/07,21:10,0.622,0.412,0.655,0.590,0.586,0.270,0.238,north,5.1,No
2014/11/07,21:20,0.623,0.411,0.657,0.591,0.587,0.270,0.237,north-northwest,6.2,No
2014/11/07,21:30,0.622,0.412,0.656,0.591,0.587,0.271,0.238,north-northwest,5.2,No
2014/11/07,21:40,0.620,0.412,0.655,0.589,0.587,0.271,0.238,north-northwest,4.3,No
2014/11/07,21:50,0.623,0.412,0.655,0.591,0.587,0.270,0.238,north,4.4,No
2014/11/07,22:00,0.623,0.411,0.653,0.591,0.587,0.270,0.238,north-northwest,2.6,No
2014/11/07,22:10,0.621,0.412,0.654,0.590,0.586,0.270,0.238,north-northwest,1.6,No
2014/11/07,22:20,0.622,0.412,0.655,0.589,0.586,0.271,0.238,north-northwest,2.8,No
2014/11/07,22:30,0.623,0.410,0.655,0.590,0.587,0.270,0.236,north,2.4,No
2014/11/07,22:40,0.622,0.412,0.656,0.591,0.586,0.270,0.238,northwest,3.0,No
2014/11/07,22:50,0.622,0.410,0.653,0.589,0.586,0.271,0.238,northwest,2.1,No
2014/11/07,23:00,0.621,0.413,0.656,0.590,0.587,0.269,0.237,west-northwest,1.4,No
2014/11/07,23:10,0.624,0.411,0.657,0.590,0.587,0.270,0.238,north,1.4,No
2014/11/07,23:20,0.622,0.411,0.654,0.590,0.587,0.270,0.238,north-northwest,2.8,No
2014/11/07,23:30,0.622,0.413,0.655,0.590,0.587,0.270,0.238,north-northwest,1.5,No
2014/11/07,23:40,0.623,0.410,0.653,0.589,0.587,0.271,0.237,-,CALM,No
2014/11/07,23:50,0.622,0.412,0.654,0.592,0.587,0.271,0.237,north-northeast,2.4,No
